Location: Fours
(44.3167°N, 6.7000°E)
Time: 18:30:51
(UTC+00:00)

Cosmos 2239 Rocket - Pass Details

Date: 30 November 2020
Orbit: 955 x 990 km, 82.9° (Epoch: 22 January)

Event Time Altitude Azimuth Distance (km) Brightness Sun altitude
Rises 18:11:43 0° 351° (N) 3,648 7.5 -23.7°
Reaches altitude 10° 18:14:13 10° 352° (N) 2,701 6.8 -24.1°
Maximum altitude 18:20:25 89° 82° (E) 970 4.4 -25.2°
Drops below altitude 10° 18:26:37 10° 173° (S) 2,703 6.8 -26.4°
Sets 18:29:07 0° 174° (S) 3,651 7.5 -26.8°
